This is the latest recevied weather packets stored in our database for station/object W4GAP. If no packets are shown the sender has not sent any weather packets the latest 10 day(s).
| Time | Temp. | Humidity | Pressure | Rain* | Wind** | Luminosity | Snow |
|---|---|---|---|---|---|---|---|
| 1777592210 | 17.78° C | 60% | 1008.7 hPa | 0 mm | - | 7 W/m² | - |
| 1777591907 | 17.78° C | 61% | 1008.6 hPa | 0 mm | - | 7 W/m² | - |
| 1777591604 | 17.78° C | 60% | 1008.4 hPa | 0 mm | - | 8 W/m² | - |
| 1777591300 | 17.78° C | 60% | 1008.2 hPa | 0 mm | - | 9 W/m² | - |
| 1777590996 | 17.78° C | 60% | 1008.3 hPa | 0 mm | - | 11 W/m² | - |
| 1777590691 | 17.78° C | 60% | 1008.2 hPa | 0 mm | - | 14 W/m² | - |
| 1777590388 | 18.33° C | 58% | 1008.2 hPa | 0 mm | - | 14 W/m² | - |
| 1777590085 | 18.33° C | 59% | 1008.3 hPa | 0 mm | - | 15 W/m² | - |
| 1777589781 | 18.33° C | 57% | 1008.4 hPa | 0 mm | - | 16 W/m² | - |
| 1777589480 | 18.33° C | 58% | 1008.3 hPa | 0 mm | - | 18 W/m² | - |
| 1777589175 | 18.89° C | 61% | 1008.4 hPa | 0 mm | - | 22 W/m² | - |
| 1777588872 | 18.89° C | 61% | 1008.3 hPa | 0 mm | - | 23 W/m² | - |
| 1777588568 | 18.89° C | 60% | 1008.5 hPa | 0 mm | - | 23 W/m² | - |
| 1777588263 | 18.89° C | 61% | 1008.3 hPa | 0 mm | - | 28 W/m² | - |
| 1777587959 | 18.89° C | 61% | 1008.3 hPa | 0 mm | - | 29 W/m² | - |
| 1777587655 | 19.44° C | 62% | 1008.4 hPa | 0 mm | - | 30 W/m² | - |
| 1777587355 | 19.44° C | 60% | 1008.5 hPa | 0 mm | - | 31 W/m² | - |
| 1777587051 | 19.44° C | 60% | 1008.3 hPa | 0 mm | - | 23 W/m² | - |
| 1777586747 | 20° C | 60% | 1008.5 hPa | 0 mm | - | 26 W/m² | - |
| 1777586442 | 19.44° C | 61% | 1008.2 hPa | 0 mm | - | 29 W/m² | - |
| 1777586137 | 19.44° C | 61% | 1008.2 hPa | 0 mm | - | 34 W/m² | - |
| 1777585835 | 19.44° C | 62% | 1008.3 hPa | 0 mm | - | 39 W/m² | - |
| 1777585535 | 19.44° C | 61% | 1008.4 hPa | 0 mm | - | 36 W/m² | - |
| 1777585231 | 20° C | 62% | 1008 hPa | 0 mm | - | 38 W/m² | - |
| 1777584926 | 20° C | 60% | 1008.1 hPa | 0 mm | - | 48 W/m² | - |
* Rain latest hour (hover to see other rain measurements)
** Current wind speed in m/s (hover to see current wind gust speed)